Allouez, MI

4:58 AM EST on February 09, 2016 (GMT -0500)
Calumet Township North End | | Change Station
CLOSE
Current Station
Personal Weather Station
Location: Calumet Township, MI
Elevation: 1224 ft
Nearby Weather Stations
Active Advisory: Lake Effect Snow Advisory

Elev 1224 ft 47.25 °N, 88.44 °W | Updated 8 minutes ago

Snow
Snow
8.1 °F
Feels Like -7 °F
N
10.9
Wind Variable Wind from NW

Today
High -- | Low -- °F
--% Chance of Precip.
Yesterday
High -- | Low -- °F
Precip. -- in
Pressure 29.85 in
Visibility 0.5 miles
Clouds
Windchill -7 °F
Dew Point 7 °F
Humidity 94%
Rainfall 0.00 in
Snow Depth Not available.
8:08 AM 6:07 PM
New Moon, 1% visible
METAR KCMX 090953Z AUTO 36012G20KT 1/2SM SN VV007 M12/M15 A2978 RMK AO2 SLP106 P0000 T11171150 TSNO $
Pressure 29.85 in
Visibility 0.5 miles
Clouds
Windchill -7 °F
Dew Point 7 °F
Humidity 94%
Rainfall 0.00 in
Snow Depth Not available.
8:08 AM 6:07 PM
New Moon, 1% visible
METAR KCMX 090953Z AUTO 36012G20KT 1/2SM SN VV007 M12/M15 A2978 RMK AO2 SLP106 P0000 T11171150 TSNO $

10-Day Weather Forecast

Almanac

Astronomy

Feb. 09, 2016 Rise Set
Actual Time
Civil Twilight
Nautical Twilight
Astronomical Twilight
Moon
Length of Visible Light
Length of Day
Tomorrow will be .
, % of the Moon is Illuminated

Today's Extremes

State Highs State Lows

Community

WunderPhotos

Upload Photos

1,891,565 photos uploaded!

WunderBlog® & News

Nearby

Air Quality

  Air Quality AQ Index Pollutant
Not available.

Snow Depth

Station Depth Elevation

Earthquake Activity

City Distance Mag. Time & Date
Minimum magnitude displayed is 2.5.

Coastal Water Temperatures

Place Temperature

Stations

Nearby Weather Stations

Station Location Temp. Windchill Dew Point Humidity Wind Precip. Elev Updated Type
                   

Watches & Warnings

Lake Effect Snow Advisory
Issued: 4:31 AM EST Feb. 9, 2016 – National Weather Service

... Lake effect Snow Advisory remains in effect until 4 PM EST
this afternoon...

Hazardous weather...

* lake effect snow showers will continue into this afternoon before
   diminishing late.

* Look for additional accumulations through this afternoon of 2 to 5
   inches... with the greatest amounts in the higher terrain from
   Twin Lakes to Calumet and Delaware.

* Expect areas of blowing snow with reduced visibility through this
   afternoon along Lake Superior.

Impacts...

* roads will be snow covered and slippery.

Precautionary/preparedness actions...

* a lake effect Snow Advisory Means Lake effect snow is
   forecast that will make travel difficult in some areas.

* Prepare... plan... and stay informed. Visit www.Weather.Gov/MQT



Jlb